STARLINK-11492, 62224

Orbit data source: Space-Track

STARLINK-11492, 62224 is a payload satellite owned by SpaceX/Seattle (US) in LEO that was launched on Thu, 05 Dec 2024 UTC via an FALCON 9 launch vehicle from the Air Force Western Test Range (AFWTR). Payload-class satellites include a variety of spacecraft equipped with specific instruments for various scientific and technological missions. These include communications satellites like Starlink; space stations such as the ISS; scientific satellites like the Hubble; Earth observation satellites from companies like Planet Labs, Umbra, and HawkEye 360; GPS; miniature CubeSats for education and research; and military/defense satellites.

Loading next visibility...
Identifier
62224, 2024-231G
Orbit
LEO
Country
Flag of USUS
Related business
Manufacturer
SpaceX/Seattle
Mission
Operational Commercial Communications
Bus & Motor
STARLINK V2MD, Unknown motor
Mass
960 kg wet, ~910 kg dry
Launch date (UTC)
2024-12-05 (1 year ago)
Launch vehicle
FALCON 9
Launch site
Air Force Western Test Range (AFWTR)
Object type
Payload
Rocket body
Debris
Shape & HBR
Box + 2 Pan, 18.1 m
Radar Cross Section
36.964 m², Large (>1 m²)

Expand to show TLE details & history
Last TLE update: 13 hours ago

TLE from 13 hours ago
0 STARLINK-11492
1 62224U 24231G   26125.45332933  .00142569  00000-0  11579-2 0  9998
2 62224  53.1571 181.6886 0001373  65.7100 294.4061 15.69784728 82329
Epoch: 2026-05-05T10:52Z
TLE epoch observation values (Epoch: 2026-05-05T10:52:47.654Z)
Latitude
-0.00002°
Longitude
155.16207°
Altitude
360.046 km
Speed
7.695 km/s
True Right ascension
12h 06m 45s
True Declination
0° 00' 00"
Sunlit
Object was in full shadow at epoch
Visualization orbit readout
Latitude
Unknown
Longitude
Unknown
Altitude
Unknown
Speed
Unknown
Apparent Right ascension
Unknown
Apparent Declination
Unknown
Sunlit
N/A
Visualization observer readout
Local Sidereal Time
07:25:52
Azimuth
Unknown
Elevation
Unknown
Doppler factor
Unknown
Orbital elements
Apogee altitude
360.699 km
Perigee altitude
358.849 km
Semi-major axis
6,737.911 km
Eccentricity
0.00014
Inclination
53.1571°
RAAN
181.6886°
Arg. of periapsis
65.71°
True anomaly
294.39177°
Mean anomaly
294.4061°
Eccentric anomaly
294.39894°
Mean motion
3.92424 °/min
Orbital period
91.74 mins
BSTAR
0.0011579
Loading maneuver chart data...
Computing Atmospheric mass density...
Loading historical data...
Loading historical data...
Loading historical data...
Loading historical data...
Loading historical data...
Loading historical data...
Loading historical data...

Documentation

Showing up to 5 results
|